* Astronomy

Members Login
Post Info TOPIC: Comet C/2010 J1 (BOATTINI)


L

Posts: 131433
Date:
RE: Comet C/2010 J1 (BOATTINI)
Permalink  
 


Orbital elements:
C/2010 J1 (Boattini)
Epoch 2010 Feb. 13.0 TT = JDT 2455240.5
T 2010 Feb. 4.81810 TT MPC
q 1.6956406 (2000.0) P Q
z +0.0272064 Peri. 333.10727 +0.07170146 -0.72053364
+/-0.0000046 Node 254.81327 -0.73714381 -0.50410086
e 0.9538676 Incl. 134.38458 -0.67192105 +0.47614450

MPEC 2010 - N56


__________________


L

Posts: 131433
Date:
Permalink  
 

Orbital elements:
C/2010 J1 (Boattini)
T 2010 Feb. 4.8193 TT MPC
q 1.695654 (2000.0) P Q
z +0.027233 Peri. 333.1088 +0.0716850 -0.7205386
Node 254.8134 -0.7371586 -0.5040796
e 0.953823 Incl. 134.3849 -0.6719066 +0.4761595
From 549 observations 2010 May 6-July 6.

MPEC 2010 - N26


__________________


L

Posts: 131433
Date:
Permalink  
 

Orbital elements:
C/2010 J1 (Boattini)
T 2010 Feb. 4.8158 TT MPC
q 1.695629 (2000.0) P Q
z +0.027264 Peri. 333.1066 +0.0717052 -0.7205336
Node 254.8130 -0.7371381 -0.5041066
e 0.953770 Incl. 134.3845 -0.6719269 +0.4761385
From 533 observations 2010 May 6-June 18.

MPEC 2010 - M43


__________________


L

Posts: 131433
Date:
Permalink  
 

Orbital elements:
C/2010 J1 (Boattini)
T 2010 Feb. 4.8167 TT MPC
q 1.695631 (2000.0) P Q
z +0.027252 Peri. 333.1069 +0.0717018 -0.7205341
Node 254.8131 -0.7371412 -0.5041026
e 0.953790 Incl. 134.3846 -0.6719239 +0.4761419
From 507 observations 2010 May 6-June 11.

MPEC 2010 - L73


__________________


L

Posts: 131433
Date:
Permalink  
 

Orbital elements:
C/2010 J1 (Boattini)
T 2010 Feb. 4.8184 TT MPC
q 1.695646 (2000.0) P Q
z +0.027240 Peri. 333.1082 +0.0716905 -0.7205371
Node 254.8133 -0.7371528 -0.5040872
e 0.953810 Incl. 134.3848 -0.6719124 +0.4761538
From 488 observations 2010 May 6-June 7.

MPEC 2010 - L34


__________________


L

Posts: 131433
Date:
Permalink  
 

Orbital elements:
C/2010 J1 (Boattini)
T 2010 Feb. 4.852 TT MPC
q 1.69587 (2000.0) P Q
z +0.02693 Peri. 333.129 +0.071498 -0.720582
Node 254.816 -0.737342 -0.503835
e 0.95433 Incl. 134.388 -0.671725 +0.476353
From 429 observations 2010 May 6-June 1.

MPEC 2010 - L04


__________________


L

Posts: 131433
Date:
Permalink  
 

Orbital elements:
C/2010 J1 (Boattini)
T 2010 Feb. 4.832 TT MPC
q 1.69575 (2000.0) P Q
z +0.02714 Peri. 333.117 +0.071608 -0.720558
Node 254.815 -0.737236 -0.503976
e 0.95398 Incl. 134.386 -0.671830 +0.476239
From 388 observations 2010 May 6-24.

MPEC 2010 - K51


__________________


L

Posts: 131433
Date:
Permalink  
 

Orbital elements:
C/2010 J1 (Boattini)
T 2010 Feb. 4.800 TT MPC
q 1.69554 (2000.0) P Q
z +0.02743 Peri. 333.098 +0.071790 -0.720517
Node 254.812 -0.737059 -0.504213
e 0.95350 Incl. 134.383 -0.672005 +0.476052
From 292 observations 2010 May 6-19.

MPEC 2010 - K19


__________________


L

Posts: 131433
Date:
Permalink  
 

Orbital elements:
C/2010 J1 (Boattini)
T 2010 Feb. 7.880 TT MPC
q 1.71758 (2000.0) P Q
Peri. 335.053 +0.053501 -0.724547
Node 255.103 -0.754580 -0.480034
e 1.0 Incl. 134.680 -0.654023 +0.494570
From 218 observations 2010 May 6-13.

MPEC 2010 - J88



__________________


L

Posts: 131433
Date:
Permalink  
 

Orbital elements:
C/2010 J1 (Boattini)
T 2010 Feb. 7.853 TT MPC
q 1.71710 (2000.0) P Q
Peri. 335.017 +0.053678 -0.724383
Node 255.091 -0.754232 -0.480491
e 1.0 Incl. 134.663 -0.654410 +0.494366
From 135 observations 2010 May 6-8.

MPEC 2010 - J46


__________________
1 2  >  Last»  | Page of 2  sorted by
Quick Reply

Please log in to post quick replies.



Create your own FREE Forum
Report Abuse
Powered by ActiveBoard